| time (UTC) | temp F | wind direction | speed MPH | gust MPH | rain 1hr in | rain 24hr in | rain mn in | humidity % | barometer mb |
| 20260905230005 | 74 | 5 | 0.0 | 1.0 | 0.00 | 0.00 | 0.00 | 80 | 1010.3 |
| 20260905225504 | 74 | 5 | 0.0 | 1.0 | 0.00 | 0.00 | 0.00 | 78 | 1010.3 |
| 20260905225004 | 75 | 5 | 0.0 | 0.0 | 0.00 | 0.00 | 0.00 | 79 | 1010.3 |
| 20260905224503 | 75 | 5 | 0.0 | 1.0 | 0.00 | 0.00 | 0.00 | 77 | 1010.2 |
| 20260905224004 | 75 | 5 | 0.0 | 2.0 | 0.00 | 0.00 | 0.00 | 77 | 1010.2 |
| 20260905222503 | 77 | 5 | 1.0 | 3.0 | 0.00 | 0.00 | 0.00 | 71 | 1010.2 |
| 20260905222004 | 77 | 5 | 1.0 | 3.0 | 0.00 | 0.00 | 0.00 | 70 | 1010.1 |
| 20260905221503 | 77 | 5 | 1.0 | 4.0 | 0.00 | 0.00 | 0.00 | 70 | 1010.1 |
| 20260905221004 | 78 | 5 | 2.0 | 4.0 | 0.00 | 0.00 | 0.00 | 68 | 1010.2 |
| 20260905220503 | 78 | 5 | 2.0 | 4.0 | 0.00 | 0.00 | 0.00 | 68 | 1010.1 |
| 20260905220009 | 79 | 5 | 2.0 | 4.0 | 0.00 | 0.00 | 0.00 | 67 | 1010.1 |
| 20260905215503 | 79 | 5 | 2.0 | 6.0 | 0.00 | 0.00 | 0.00 | 68 | 1010.0 |
| 20260905213503 | 79 | 38 | 2.0 | 5.0 | 0.00 | 0.00 | 0.00 | 67 | 1009.7 |
| 20260905213004 | 80 | 24 | 2.0 | 7.0 | 0.00 | 0.00 | 0.00 | 65 | 1009.8 |
| 20260905212504 | 80 | 355 | 3.0 | 7.0 | 0.00 | 0.00 | 0.00 | 63 | 1009.8 |
| 20260905212005 | 81 | 68 | 2.0 | 6.0 | 0.00 | 0.00 | 0.00 | 65 | 1009.7 |
| 20260905211503 | 80 | 61 | 3.0 | 6.0 | 0.00 | 0.00 | 0.00 | 66 | 1009.5 |
| 20260905210504 | 80 | 351 | 3.0 | 6.0 | 0.00 | 0.00 | 0.00 | 67 | 1009.4 |
| 20260905210008 | 80 | 346 | 3.0 | 6.0 | 0.00 | 0.00 | 0.00 | 67 | 1009.4 |
| 20260905205504 | 80 | 17 | 2.0 | 4.0 | 0.00 | 0.00 | 0.00 | 66 | 1009.4 |
| 20260905205005 | 79 | 21 | 2.0 | 6.0 | 0.00 | 0.00 | 0.00 | 70 | 1009.4 |
| 20260905204504 | 79 | 21 | 2.0 | 5.0 | 0.00 | 0.00 | 0.00 | 70 | 1009.4 |
| 20260905204005 | 78 | 21 | 2.0 | 5.0 | 0.00 | 0.00 | 0.00 | 69 | 1009.4 |
| 20260905203004 | 79 | 38 | 2.0 | 5.0 | 0.00 | 0.00 | 0.00 | 70 | 1009.5 |
| 20260905202504 | 79 | 38 | 3.0 | 6.0 | 0.00 | 0.00 | 0.00 | 68 | 1009.4 |
| 20260905202004 | 79 | 63 | 3.0 | 6.0 | 0.00 | 0.00 | 0.00 | 67 | 1009.4 |
| 20260905201503 | 80 | 5 | 2.0 | 6.0 | 0.00 | 0.00 | 0.00 | 70 | 1009.5 |
| 20260905201004 | 80 | 5 | 2.0 | 8.0 | 0.00 | 0.00 | 0.00 | 69 | 1009.5 |
| 20260905200502 | 80 | 350 | 2.0 | 8.0 | 0.00 | 0.00 | 0.00 | 66 | 1009.5 |
| 20260905200007 | 80 | 70 | 2.0 | 5.0 | 0.00 | 0.00 | 0.00 | 66 | 1009.6 |
| 20260905195503 | 81 | 351 | 2.0 | 4.0 | 0.00 | 0.00 | 0.00 | 70 | 1009.6 |
| 20260905195004 | 80 | 355 | 2.0 | 8.0 | 0.00 | 0.00 | 0.00 | 68 | 1009.7 |
| 20260905194505 | 80 | 355 | 2.0 | 8.0 | 0.00 | 0.00 | 0.00 | 66 | 1009.8 |
| 20260905194006 | 81 | 49 | 2.0 | 5.0 | 0.00 | 0.00 | 0.00 | 68 | 1009.8 |
| 20260905193503 | 80 | 49 | 2.0 | 5.0 | 0.00 | 0.00 | 0.00 | 68 | 1010.0 |
| 20260905193004 | 80 | 37 | 2.0 | 9.0 | 0.00 | 0.00 | 0.00 | 70 | 1010.2 |
| 20260905192503 | 80 | 17 | 2.0 | 4.0 | 0.00 | 0.00 | 0.00 | 69 | 1010.2 |
| 20260905192004 | 80 | 17 | 2.0 | 5.0 | 0.00 | 0.00 | 0.00 | 66 | 1010.3 |
| 20260905191502 | 81 | 21 | 3.0 | 5.0 | 0.00 | 0.00 | 0.00 | 68 | 1010.3 |
| 20260905190504 | 82 | 39 | 3.0 | 7.0 | 0.00 | 0.00 | 0.00 | 66 | 1010.3 |
| 20260905190005 | 81 | 55 | 3.0 | 9.0 | 0.00 | 0.00 | 0.00 | 66 | 1010.4 |
| 20260905185004 | 80 | 24 | 3.0 | 9.0 | 0.00 | 0.00 | 0.00 | 67 | 1010.5 |
| 20260905184004 | 81 | 5 | 4.0 | 9.0 | 0.00 | 0.00 | 0.00 | 64 | 1010.6 |
| 20260905183503 | 81 | 355 | 4.0 | 12.0 | 0.00 | 0.00 | 0.00 | 65 | 1010.7 |
| 20260905183003 | 81 | 355 | 4.0 | 12.0 | 0.00 | 0.00 | 0.00 | 63 | 1010.8 |
| 20260905182502 | 81 | 38 | 3.0 | 7.0 | 0.00 | 0.00 | 0.00 | 67 | 1010.7 |
| 20260905182003 | 80 | 46 | 3.0 | 7.0 | 0.00 | 0.00 | 0.00 | 68 | 1010.8 |
| 20260905181503 | 80 | 348 | 4.0 | 9.0 | 0.00 | 0.00 | 0.00 | 63 | 1010.8 |
| 20260905181003 | 80 | 350 | 4.0 | 9.0 | 0.00 | 0.00 | 0.00 | 65 | 1010.7 |
| 20260905180504 | 80 | 326 | 3.0 | 9.0 | 0.00 | 0.00 | 0.00 | 63 | 1010.8 |
| 20260905180007 | 80 | 317 | 3.0 | 11.0 | 0.00 | 0.00 | 0.00 | 66 | 1010.8 |
| 20260905175502 | 80 | 25 | 3.0 | 11.0 | 0.00 | 0.00 | 0.00 | 65 | 1010.9 |
| 20260905175003 | 80 | 342 | 3.0 | 8.0 | 0.00 | 0.00 | 0.00 | 68 | 1010.9 |
| 20260905174503 | 80 | 323 | 3.0 | 8.0 | 0.00 | 0.00 | 0.00 | 70 | 1010.9 |
| 20260905173503 | 79 | 53 | 3.0 | 8.0 | 0.00 | 0.00 | 0.00 | 70 | 1010.9 |
| 20260905173002 | 79 | 327 | 3.0 | 8.0 | 0.00 | 0.00 | 0.00 | 68 | 1010.9 |
| 20260905172004 | 80 | 17 | 3.0 | 8.0 | 0.00 | 0.00 | 0.00 | 67 | 1011.0 |
| 20260905171503 | 79 | 355 | 3.0 | 6.0 | 0.00 | 0.00 | 0.00 | 68 | 1011.0 |
| 20260905171006 | 79 | 347 | 3.0 | 6.0 | 0.00 | 0.00 | 0.00 | 69 | 1011.2 |
| 20260905170004 | 80 | 24 | 3.0 | 8.0 | 0.00 | 0.00 | 0.00 | 68 | 1011.2 |
| 20260905165002 | 79 | 33 | 3.0 | 6.0 | 0.00 | 0.00 | 0.00 | 67 | 1011.2 |
| 20260905164502 | 79 | 22 | 2.0 | 8.0 | 0.00 | 0.00 | 0.00 | 68 | 1011.2 |
| 20260905164002 | 79 | 355 | 3.0 | 8.0 | 0.00 | 0.00 | 0.00 | 66 | 1011.2 |
| 20260905163502 | 79 | 355 | 3.0 | 6.0 | 0.00 | 0.00 | 0.00 | 67 | 1011.2 |
| 20260905163003 | 79 | 50 | 3.0 | 6.0 | 0.00 | 0.00 | 0.00 | 66 | 1011.2 |
| 20260905162004 | 79 | 44 | 4.0 | 10.0 | 0.00 | 0.00 | 0.00 | 67 | 1011.3 |
| 20260905161501 | 78 | 333 | 4.0 | 10.0 | 0.00 | 0.00 | 0.00 | 69 | 1011.3 |
| 20260905161002 | 78 | 329 | 4.0 | 8.0 | 0.00 | 0.00 | 0.00 | 69 | 1011.3 |
| 20260905160501 | 78 | 331 | 3.0 | 6.0 | 0.00 | 0.00 | 0.00 | 70 | 1011.4 |
| 20260905160006 | 79 | 18 | 2.0 | 8.0 | 0.00 | 0.00 | 0.00 | 69 | 1011.4 |
| 20260905155504 | 79 | 28 | 3.0 | 8.0 | 0.00 | 0.00 | 0.00 | 70 | 1011.5 |
| 20260905155003 | 79 | 348 | 3.0 | 7.0 | 0.00 | 0.00 | 0.00 | 68 | 1011.6 |
| 20260905154503 | 79 | 51 | 4.0 | 10.0 | 0.00 | 0.00 | 0.00 | 67 | 1011.6 |
| 20260905154005 | 79 | 355 | 3.0 | 10.0 | 0.00 | 0.00 | 0.00 | 68 | 1011.5 |
| 20260905153502 | 80 | 9 | 3.0 | 8.0 | 0.00 | 0.00 | 0.00 | 71 | 1011.5 |
| 20260905153003 | 79 | 355 | 3.0 | 8.0 | 0.00 | 0.00 | 0.00 | 69 | 1011.5 |
| 20260905152502 | 79 | 9 | 3.0 | 8.0 | 0.00 | 0.00 | 0.00 | 70 | 1011.6 |
| 20260905152005 | 79 | 18 | 2.0 | 8.0 | 0.00 | 0.00 | 0.00 | 69 | 1011.5 |
| 20260905151503 | 79 | 23 | 2.0 | 4.0 | 0.00 | 0.00 | 0.00 | 71 | 1011.6 |
| 20260905151004 | 78 | 23 | 2.0 | 4.0 | 0.00 | 0.00 | 0.00 | 69 | 1011.6 |
| 20260905150005 | 79 | 23 | 2.0 | 9.0 | 0.00 | 0.00 | 0.00 | 71 | 1011.6 |
| 20260905145002 | 78 | 53 | 3.0 | 6.0 | 0.00 | 0.00 | 0.00 | 69 | 1011.6 |
| 20260905144505 | 78 | 35 | 2.0 | 5.0 | 0.00 | 0.00 | 0.00 | 70 | 1011.6 |
| 20260905144002 | 78 | 310 | 2.0 | 7.0 | 0.00 | 0.00 | 0.00 | 72 | 1011.5 |
| 20260905142502 | 77 | 35 | 3.0 | 9.0 | 0.00 | 0.00 | 0.00 | 70 | 1011.4 |
| 20260905142002 | 77 | 57 | 3.0 | 11.0 | 0.00 | 0.00 | 0.00 | 70 | 1011.3 |
| 20260905141503 | 78 | 46 | 3.0 | 11.0 | 0.00 | 0.00 | 0.00 | 72 | 1011.2 |
| 20260905141002 | 78 | 30 | 4.0 | 11.0 | 0.00 | 0.00 | 0.00 | 71 | 1011.2 |
| 20260905140005 | 79 | 5 | 3.0 | 5.0 | 0.00 | 0.00 | 0.00 | 71 | 1011.1 |
| 20260905135502 | 79 | 5 | 4.0 | 11.0 | 0.00 | 0.00 | 0.00 | 73 | 1010.9 |
| 20260905134501 | 79 | 24 | 2.0 | 5.0 | 0.00 | 0.00 | 0.00 | 71 | 1010.9 |
| 20260905134003 | 79 | 25 | 3.0 | 6.0 | 0.00 | 0.00 | 0.00 | 72 | 1010.8 |
| 20260905133502 | 78 | 24 | 3.0 | 6.0 | 0.00 | 0.00 | 0.00 | 72 | 1010.7 |
| 20260905133002 | 78 | 30 | 3.0 | 8.0 | 0.00 | 0.00 | 0.00 | 70 | 1010.6 |
| 20260905132501 | 78 | 360 | 3.0 | 8.0 | 0.00 | 0.00 | 0.00 | 70 | 1010.5 |
| 20260905132003 | 78 | 26 | 3.0 | 8.0 | 0.00 | 0.00 | 0.00 | 72 | 1010.6 |
| 20260905131503 | 78 | 9 | 3.0 | 7.0 | 0.00 | 0.00 | 0.00 | 70 | 1010.6 |
| 20260905131002 | 78 | 46 | 2.0 | 6.0 | 0.00 | 0.00 | 0.00 | 73 | 1010.5 |
| 20260905130003 | 77 | 69 | 3.0 | 5.0 | 0.00 | 0.00 | 0.00 | 74 | 1010.5 |
| 20260905125502 | 76 | 69 | 2.0 | 6.0 | 0.00 | 0.00 | 0.00 | 75 | 1010.5 |
| 20260905125003 | 76 | 69 | 1.0 | 6.0 | 0.00 | 0.00 | 0.00 | 78 | 1010.6 |
| 20260905124501 | 75 | 68 | 1.0 | 4.0 | 0.00 | 0.00 | 0.00 | 79 | 1010.7 |
| 20260905124002 | 75 | 68 | 2.0 | 6.0 | 0.00 | 0.00 | 0.00 | 79 | 1010.6 |
| 20260905123501 | 75 | 68 | 2.0 | 6.0 | 0.00 | 0.00 | 0.00 | 79 | 1010.6 |
| 20260905123002 | 75 | 40 | 2.0 | 5.0 | 0.00 | 0.00 | 0.00 | 83 | 1010.6 |
| 20260905122501 | 76 | 40 | 3.0 | 8.0 | 0.00 | 0.00 | 0.00 | 82 | 1010.7 |
| 20260905122003 | 75 | 42 | 3.0 | 7.0 | 0.00 | 0.00 | 0.00 | 84 | 1010.7 |
| 20260905121502 | 75 | 78 | 2.0 | 6.0 | 0.00 | 0.00 | 0.00 | 86 | 1010.7 |
| 20260905120502 | 73 | 13 | 0.0 | 3.0 | 0.00 | 0.00 | 0.00 | 92 | 1010.5 |
| 20260905120002 | 73 | 13 | 0.0 | 1.0 | 0.00 | 0.00 | 0.00 | 93 | 1010.4 |
| 20260905115501 | 73 | 13 | 0.0 | 1.0 | 0.00 | 0.00 | 0.00 | 93 | 1010.3 |
| 20260905115000 | 73 | 13 | 0.0 | 1.0 | 0.00 | 0.00 | 0.00 | 93 | 1010.3 |
| 20260905114501 | 73 | 13 | 0.0 | 1.0 | 0.00 | 0.00 | 0.00 | 94 | 1010.3 |
| 20260905114001 | 73 | 13 | 0.0 | 1.0 | 0.00 | 0.00 | 0.00 | 94 | 1010.3 |
| 20260905113500 | 72 | 13 | 0.0 | 1.0 | 0.00 | 0.00 | 0.00 | 93 | 1010.2 |
| 20260905112500 | 72 | 13 | 0.0 | 1.0 | 0.00 | 0.00 | 0.00 | 94 | 1010.2 |
| 20260905112001 | 72 | 13 | 0.0 | 1.0 | 0.00 | 0.00 | 0.00 | 94 | 1010.1 |
| 20260905111500 | 72 | 13 | 0.0 | 1.0 | 0.00 | 0.00 | 0.00 | 94 | 1010.1 |
| 20260905111001 | 72 | 13 | 0.0 | 1.0 | 0.00 | 0.00 | 0.00 | 94 | 1010.1 |
| 20260905110500 | 72 | 13 | 0.0 | 1.0 | 0.00 | 0.00 | 0.00 | 94 | 1010.1 |
| 20260905110005 | 72 | 13 | 0.0 | 1.0 | 0.00 | 0.00 | 0.00 | 94 | 1010.0 |
| 20260905105502 | 72 | 13 | 0.0 | 1.0 | 0.00 | 0.00 | 0.00 | 94 | 1009.9 |
| 20260905105003 | 72 | 13 | 0.0 | 1.0 | 0.00 | 0.00 | 0.00 | 94 | 1009.8 |
| 20260905104502 | 72 | 13 | 0.0 | 1.0 | 0.00 | 0.00 | 0.00 | 94 | 1009.7 |
| 20260905103502 | 72 | 13 | 0.0 | 3.0 | 0.00 | 0.00 | 0.00 | 93 | 1009.6 |
| 20260905103002 | 72 | 13 | 1.0 | 2.0 | 0.00 | 0.00 | 0.00 | 93 | 1009.6 |
| 20260905101002 | 72 | 13 | 0.0 | 1.0 | 0.00 | 0.00 | 0.00 | 93 | 1009.2 |
| 20260905100502 | 72 | 13 | 0.0 | 1.0 | 0.00 | 0.00 | 0.00 | 93 | 1009.1 |
| 20260905100005 | 72 | 13 | 0.0 | 1.0 | 0.00 | 0.00 | 0.00 | 93 | 1009.2 |
| 20260905095500 | 72 | 13 | 0.0 | 1.0 | 0.00 | 0.00 | 0.00 | 93 | 1009.3 |
| 20260905095001 | 72 | 13 | 0.0 | 1.0 | 0.00 | 0.00 | 0.00 | 93 | 1009.2 |
| 20260905094500 | 72 | 13 | 0.0 | 1.0 | 0.00 | 0.00 | 0.00 | 93 | 1009.2 |
| 20260905094001 | 72 | 13 | 0.0 | 0.0 | 0.00 | 0.00 | 0.00 | 93 | 1009.2 |
| 20260905093500 | 73 | 13 | 0.0 | 1.0 | 0.00 | 0.00 | 0.00 | 93 | 1009.3 |
| 20260905093003 | 72 | 13 | 0.0 | 1.0 | 0.00 | 0.00 | 0.00 | 93 | 1009.3 |
| 20260905092459 | 73 | 13 | 0.0 | 0.0 | 0.00 | 0.00 | 0.00 | 93 | 1009.3 |
| 20260905092013 | 73 | 13 | 0.0 | 1.0 | 0.00 | 0.00 | 0.00 | 93 | 1009.3 |
| 20260905091500 | 73 | 13 | 0.0 | 1.0 | 0.00 | 0.00 | 0.00 | 93 | 1009.4 |
| 20260905091000 | 73 | 13 | 0.0 | 0.0 | 0.00 | 0.00 | 0.00 | 93 | 1009.3 |
| 20260905090501 | 73 | 13 | 0.0 | 0.0 | 0.00 | 0.00 | 0.00 | 93 | 1009.3 |
| 20260905090009 | 73 | 13 | 0.0 | 0.0 | 0.00 | 0.00 | 0.00 | 93 | 1009.3 |
| 20260905084500 | 73 | 13 | 0.0 | 1.0 | 0.00 | 0.00 | 0.00 | 93 | 1009.2 |
| 20260905084000 | 73 | 13 | 0.0 | 1.0 | 0.00 | 0.00 | 0.00 | 93 | 1009.2 |
| 20260905083500 | 73 | 13 | 0.0 | 1.0 | 0.00 | 0.00 | 0.00 | 93 | 1009.2 |
| 20260905083001 | 73 | 13 | 0.0 | 1.0 | 0.00 | 0.00 | 0.00 | 92 | 1009.3 |
| 20260905082500 | 74 | 13 | 0.0 | 1.0 | 0.00 | 0.00 | 0.00 | 92 | 1009.3 |
| 20260905082003 | 74 | 13 | 0.0 | 0.0 | 0.00 | 0.00 | 0.00 | 92 | 1009.4 |
| 20260905081501 | 74 | 13 | 0.0 | 0.0 | 0.00 | 0.00 | 0.00 | 92 | 1009.3 |
| 20260905081002 | 74 | 13 | 0.0 | 0.0 | 0.00 | 0.00 | 0.00 | 92 | 1009.3 |
| 20260905080503 | 74 | 13 | 0.0 | 0.0 | 0.00 | 0.00 | 0.00 | 92 | 1009.4 |
| 20260905080001 | 74 | 13 | 0.0 | 1.0 | 0.00 | 0.02 | 0.00 | 92 | 1009.4 |
| 20260905075001 | 74 | 13 | 0.0 | 1.0 | 0.00 | 0.02 | 0.00 | 91 | 1009.5 |
| 20260905074500 | 75 | 13 | 0.0 | 2.0 | 0.00 | 0.02 | 0.00 | 91 | 1009.4 |
| 20260905074001 | 75 | 13 | 0.0 | 2.0 | 0.00 | 0.02 | 0.00 | 91 | 1009.4 |
| 20260905073500 | 75 | 13 | 0.0 | 1.0 | 0.00 | 0.02 | 0.00 | 91 | 1009.4 |
| 20260905073001 | 75 | 13 | 0.0 | 1.0 | 0.00 | 0.02 | 0.00 | 91 | 1009.5 |
| 20260905072500 | 75 | 13 | 0.0 | 1.0 | 0.00 | 0.02 | 0.00 | 90 | 1009.5 |
| 20260905072001 | 75 | 13 | 0.0 | 1.0 | 0.00 | 0.02 | 0.00 | 90 | 1009.6 |
| 20260905071459 | 75 | 13 | 0.0 | 1.0 | 0.00 | 0.02 | 0.00 | 90 | 1009.6 |
| 20260905071001 | 76 | 13 | 1.0 | 3.0 | 0.00 | 0.02 | 0.00 | 90 | 1009.7 |
| 20260905070501 | 76 | 13 | 1.0 | 3.0 | 0.00 | 0.02 | 0.00 | 89 | 1009.7 |
| 20260905070000 | 76 | 13 | 0.0 | 3.0 | 0.00 | 0.14 | 0.00 | 89 | 1009.8 |
| 20260905065500 | 76 | 13 | 1.0 | 4.0 | 0.00 | 0.14 | 0.00 | 89 | 1009.9 |
| 20260905065001 | 76 | 13 | 2.0 | 4.0 | 0.00 | 0.14 | 0.00 | 89 | 1009.9 |
| 20260905064500 | 76 | 330 | 1.0 | 3.0 | 0.00 | 0.14 | 0.00 | 89 | 1010.0 |
| 20260905064000 | 76 | 330 | 2.0 | 4.0 | 0.00 | 0.14 | 0.00 | 88 | 1009.9 |
| 20260905063500 | 77 | 330 | 2.0 | 6.0 | 0.00 | 0.14 | 0.00 | 88 | 1009.9 |
| 20260905063003 | 77 | 330 | 1.0 | 6.0 | 0.00 | 0.14 | 0.00 | 88 | 1009.9 |
| 20260905062501 | 77 | 325 | 1.0 | 4.0 | 0.00 | 0.14 | 0.00 | 88 | 1009.8 |
| 20260905062001 | 77 | 325 | 2.0 | 4.0 | 0.00 | 0.14 | 0.00 | 88 | 1009.9 |
| 20260905061501 | 77 | 325 | 2.0 | 5.0 | 0.00 | 0.14 | 0.00 | 88 | 1010.0 |
| 20260905061000 | 77 | 325 | 2.0 | 5.0 | 0.00 | 0.14 | 0.00 | 88 | 1010.0 |
| 20260905060501 | 77 | 328 | 2.0 | 5.0 | 0.00 | 0.14 | 0.00 | 88 | 1010.0 |
| 20260905055959 | 77 | 329 | 1.0 | 4.0 | 0.00 | 0.66 | 0.00 | 88 | 1010.0 |
| 20260905055459 | 77 | 330 | 1.0 | 4.0 | 0.00 | 0.66 | 0.00 | 89 | 1009.9 |
| 20260905055000 | 77 | 329 | 1.0 | 2.0 | 0.00 | 0.66 | 0.00 | 89 | 1009.8 |
| 20260905054459 | 77 | 329 | 1.0 | 4.0 | 0.00 | 0.66 | 0.00 | 88 | 1009.8 |
| 20260905053459 | 77 | 331 | 1.0 | 3.0 | 0.00 | 0.66 | 0.00 | 89 | 1010.0 |
| 20260905052959 | 77 | 331 | 1.0 | 3.0 | 0.00 | 0.66 | 0.00 | 89 | 1010.1 |
| 20260905052459 | 77 | 331 | 1.0 | 2.0 | 0.00 | 0.66 | 0.00 | 89 | 1010.1 |
| 20260905052000 | 77 | 331 | 1.0 | 3.0 | 0.00 | 0.66 | 0.00 | 89 | 1010.1 |
| 20260905051459 | 77 | 331 | 1.0 | 3.0 | 0.00 | 0.66 | 0.00 | 89 | 1010.1 |
| 20260905051001 | 77 | 331 | 1.0 | 2.0 | 0.00 | 0.66 | 0.00 | 89 | 1010.2 |
| 20260905050006 | 76 | 331 | 0.0 | 2.0 | 0.00 | 0.66 | 0.00 | 89 | 1010.4 |
| 20260905045005 | 76 | 331 | 1.0 | 2.0 | 0.00 | 0.66 | 0.00 | 89 | 1010.5 |
| 20260905044504 | 76 | 331 | 0.0 | 3.0 | 0.00 | 0.66 | 0.00 | 89 | 1010.5 |
| 20260905044005 | 76 | 331 | 0.0 | 2.0 | 0.00 | 0.66 | 0.00 | 89 | 1010.6 |
| 20260905043504 | 76 | 331 | 0.0 | 3.0 | 0.00 | 0.66 | 0.00 | 89 | 1010.5 |
| 20260905043007 | 76 | 331 | 1.0 | 3.0 | 0.00 | 0.66 | 0.00 | 89 | 1010.5 |
| 20260905042504 | 75 | 331 | 1.0 | 3.0 | 0.00 | 0.66 | 0.00 | 89 | 1010.6 |
| 20260905042007 | 75 | 331 | 0.0 | 2.0 | 0.00 | 0.66 | 0.00 | 90 | 1010.6 |
| 20260905040505 | 75 | 331 | 0.0 | 1.0 | 0.00 | 0.66 | 0.00 | 90 | 1010.6 |
| 20260905035505 | 76 | 331 | 0.0 | 1.0 | 0.00 | 0.66 | 0.66 | 89 | 1010.6 |
| 20260905035005 | 76 | 331 | 0.0 | 0.0 | 0.00 | 0.66 | 0.66 | 88 | 1010.6 |
| 20260905034505 | 76 | 331 | 0.0 | 2.0 | 0.00 | 0.66 | 0.66 | 88 | 1010.7 |
| 20260905034006 | 76 | 331 | 0.0 | 2.0 | 0.00 | 0.66 | 0.66 | 88 | 1010.7 |
| 20260905033504 | 76 | 331 | 0.0 | 0.0 | 0.00 | 0.66 | 0.66 | 88 | 1010.6 |
| 20260905033006 | 76 | 331 | 0.0 | 0.0 | 0.00 | 0.66 | 0.66 | 88 | 1010.7 |
| 20260905032505 | 76 | 331 | 0.0 | 0.0 | 0.00 | 0.66 | 0.66 | 87 | 1010.8 |
| 20260905032006 | 76 | 331 | 0.0 | 0.0 | 0.00 | 0.66 | 0.66 | 87 | 1010.9 |
| 20260905031504 | 76 | 331 | 0.0 | 0.0 | 0.00 | 0.66 | 0.66 | 87 | 1011.0 |
| 20260905031005 | 76 | 331 | 0.0 | 2.0 | 0.00 | 0.66 | 0.66 | 87 | 1011.1 |
| 20260905030506 | 76 | 331 | 0.0 | 2.0 | 0.00 | 0.66 | 0.66 | 87 | 1011.1 |
| 20260905030007 | 76 | 331 | 0.0 | 0.0 | 0.00 | 0.66 | 0.66 | 87 | 1011.1 |
| 20260905025505 | 76 | 331 | 0.0 | 1.0 | 0.00 | 0.66 | 0.66 | 87 | 1011.2 |
| 20260905025005 | 76 | 331 | 0.0 | 1.0 | 0.00 | 0.66 | 0.66 | 87 | 1011.2 |
| 20260905024503 | 77 | 331 | 0.0 | 1.0 | 0.00 | 0.66 | 0.66 | 87 | 1011.2 |
| 20260905024005 | 77 | 331 | 0.0 | 1.0 | 0.00 | 0.66 | 0.66 | 87 | 1011.2 |
| 20260905023503 | 77 | 331 | 0.0 | 1.0 | 0.00 | 0.66 | 0.66 | 87 | 1011.1 |
| 20260905023006 | 77 | 331 | 0.0 | 1.0 | 0.00 | 0.66 | 0.66 | 87 | 1011.2 |
| 20260905022503 | 77 | 331 | 0.0 | 1.0 | 0.00 | 0.66 | 0.66 | 88 | 1011.2 |
| 20260905022007 | 77 | 331 | 0.0 | 1.0 | 0.00 | 0.66 | 0.66 | 88 | 1011.1 |
| 20260905021505 | 77 | 331 | 0.0 | 1.0 | 0.00 | 0.66 | 0.66 | 89 | 1011.2 |
| 20260905021005 | 77 | 331 | 0.0 | 0.0 | 0.00 | 0.66 | 0.66 | 89 | 1011.1 |
| 20260905020504 | 77 | 331 | 0.0 | 0.0 | 0.00 | 0.66 | 0.66 | 88 | 1011.1 |
| 20260905020005 | 77 | 331 | 0.0 | 0.0 | 0.00 | 0.66 | 0.66 | 88 | 1011.1 |
| 20260905015005 | 76 | 331 | 0.0 | 0.0 | 0.00 | 0.66 | 0.66 | 89 | 1011.3 |
| 20260905014005 | 77 | 331 | 0.0 | 0.0 | 0.00 | 0.66 | 0.66 | 89 | 1011.3 |
| 20260905013504 | 76 | 331 | 0.0 | 0.0 | 0.00 | 0.66 | 0.66 | 89 | 1011.2 |
| 20260905012504 | 77 | 331 | 0.0 | 0.0 | 0.00 | 0.66 | 0.66 | 89 | 1011.3 |
| 20260905012004 | 76 | 331 | 0.0 | 0.0 | 0.00 | 0.66 | 0.66 | 88 | 1011.2 |
| 20260905011503 | 77 | 331 | 0.0 | 0.0 | 0.00 | 0.66 | 0.66 | 88 | 1011.2 |
| 20260905011005 | 77 | 331 | 0.0 | 0.0 | 0.00 | 0.66 | 0.66 | 88 | 1011.1 |
| 20260905005504 | 76 | 331 | 0.0 | 0.0 | 0.00 | 0.66 | 0.66 | 88 | 1011.3 |
| 20260905005006 | 76 | 331 | 0.0 | 0.0 | 0.00 | 0.66 | 0.66 | 87 | 1011.2 |
| 20260905004505 | 76 | 331 | 0.0 | 0.0 | 0.00 | 0.66 | 0.66 | 87 | 1011.1 |
| 20260905004005 | 77 | 331 | 0.0 | 0.0 | 0.00 | 0.66 | 0.66 | 87 | 1011.2 |
| 20260905003504 | 77 | 331 | 0.0 | 0.0 | 0.00 | 0.66 | 0.66 | 87 | 1011.2 |
| 20260905003005 | 77 | 331 | 0.0 | 0.0 | 0.00 | 0.66 | 0.66 | 86 | 1011.2 |
| 20260905002504 | 77 | 331 | 0.0 | 0.0 | 0.00 | 0.66 | 0.66 | 86 | 1011.2 |
| 20260905002004 | 77 | 331 | 0.0 | 1.0 | 0.00 | 0.66 | 0.66 | 87 | 1011.1 |
| 20260905001005 | 77 | 331 | 0.0 | 0.0 | 0.00 | 0.66 | 0.66 | 86 | 1010.8 |
| 20260905000504 | 77 | 331 | 0.0 | 1.0 | 0.00 | 0.66 | 0.66 | 86 | 1010.6 |
| 20260905000006 | 77 | 331 | 0.0 | 1.0 | 0.00 | 0.66 | 0.66 | 86 | 1010.6 |
| 20260904235504 | 77 | 331 | 0.0 | 1.0 | 0.00 | 0.66 | 0.66 | 86 | 1010.6 |
| 20260904234004 | 77 | 331 | 0.0 | 0.0 | 0.00 | 0.66 | 0.66 | 85 | 1010.4 |
| 20260904233503 | 78 | 331 | 0.0 | 0.0 | 0.00 | 0.66 | 0.66 | 83 | 1010.5 |
| 20260904233006 | 78 | 331 | 0.0 | 0.0 | 0.00 | 0.66 | 0.66 | 84 | 1010.5 |
| 20260904232502 | 78 | 331 | 0.0 | 0.0 | 0.00 | 0.66 | 0.66 | 85 | 1010.5 |
| 20260904232005 | 78 | 331 | 0.0 | 1.0 | 0.00 | 0.66 | 0.66 | 84 | 1010.6 |
| 20260904231503 | 78 | 331 | 0.0 | 1.0 | 0.00 | 0.66 | 0.66 | 84 | 1010.7 |
| 20260904231004 | 79 | 331 | 0.0 | 1.0 | 0.00 | 0.66 | 0.66 | 84 | 1010.8 |